This is the latest recevied weather packets stored in our database for station/object HB9TJM-8. If no packets are shown the sender has not sent any weather packets the latest 10 day(s).
| Time | Temp. | Humidity | Pressure | Rain* | Wind** | Luminosity | Snow |
|---|---|---|---|---|---|---|---|
| 1777031783 | 16.11° C | 35% | 1020.6 hPa | 0 mm | - | 825 W/m² | - |
| 1777031475 | 16.11° C | 36% | 1021.1 hPa | 0 mm | - | 831 W/m² | - |
| 1777031168 | 15.56° C | 40% | 1020.9 hPa | 0 mm | - | 829 W/m² | - |
| 1777030860 | 15.56° C | 40% | 1020.4 hPa | 0 mm | - | 821 W/m² | - |
| 1777030553 | 15° C | 39% | 1020.9 hPa | 0 mm | - | 826 W/m² | - |
| 1777030245 | 15.56° C | 38% | 1020.5 hPa | 0 mm | - | 814 W/m² | - |
| 1777029937 | 15° C | 43% | 1020.8 hPa | 0 mm | - | 808 W/m² | - |
| 1777029630 | 15° C | 43% | 1021 hPa | 0 mm | - | 843 W/m² | - |
| 1777029323 | 15° C | 44% | 1021.1 hPa | 0 mm | - | 841 W/m² | - |
| 1777029015 | 14.44° C | 44% | 1020.9 hPa | 0 mm | - | 837 W/m² | - |
| 1777028708 | 14.44° C | 46% | 1020.9 hPa | 0 mm | - | 830 W/m² | - |
| 1777028401 | 14.44° C | 39% | 1021.1 hPa | 0 mm | - | 821 W/m² | - |
| 1777027785 | 14.44° C | 43% | 1020.7 hPa | 0 mm | - | 815 W/m² | - |
| 1777027478 | 14.44° C | 43% | 1020.8 hPa | 0 mm | - | 800 W/m² | - |
| 1777027170 | 15° C | 41% | 1021.1 hPa | 0 mm | - | 799 W/m² | - |
| 1777026863 | 14.44° C | 43% | 1020.9 hPa | 0 mm | - | 803 W/m² | - |
| 1777026556 | 14.44° C | 45% | 1021 hPa | 0 mm | - | 795 W/m² | - |
| 1777026248 | 13.89° C | 44% | 1020.4 hPa | 0 mm | - | 788 W/m² | - |
| 1777025940 | 14.44° C | 43% | 1020.9 hPa | 0 mm | - | 778 W/m² | - |
| 1777025633 | 13.89° C | 44% | 1020.9 hPa | 0 mm | - | 772 W/m² | - |
| 1777025325 | 13.89° C | 44% | 1021 hPa | 0 mm | - | 765 W/m² | - |
| 1777025018 | 13.89° C | 45% | 1021 hPa | 0 mm | - | 754 W/m² | - |
| 1777024711 | 13.89° C | 43% | 1020.6 hPa | 0 mm | - | 753 W/m² | - |
| 1777024403 | 13.89° C | 43% | 1020.8 hPa | 0 mm | - | 745 W/m² | - |
| 1777024096 | 13.89° C | 40% | 1021.2 hPa | 0 mm | - | 738 W/m² | - |
* Rain latest hour (hover to see other rain measurements)
** Current wind speed in m/s (hover to see current wind gust speed)